Apalachicola, FL

10:01 PM EDT on October 13, 2019 (GMT -0400)
Apalachicola Municipal

Weather History for KAAF - August, 2019

Change the Weather History Date:

Wednesday, August 21, 2019

  Actual Average Record
Temperature  
Mean Temperature 82 °F 82 °F  
Max Temperature 88 °F 90 °F 96 °F (1980)
Min Temperature 76 °F 74 °F 69 °F (1976)
Degree Days  
Heating Degree Days 0    
Month to date heating degree days 0  
Since 1 June heating degree days 0  
Since 1 July heating degree days 0  
Cooling Degree Days 17    
Month to date cooling degree days 381  
Year to date cooling degree days 1932  
Since 1 June cooling degree days 1445  
Growing Degree Days 32 (Base 50)    
Moisture  
Dew Point 75 °F    
Average Humidity 81    
Maximum Humidity 94    
Minimum Humidity 58    
Precipitation  
Precipitation 0.00 in 0.26 in 3.82 in (1956)
Month to date precipitation 5.81 5.62  
Year to date precipitation 33.87 37.34  
Sea Level Pressure  
Sea Level Pressure 30.07 in    
Wind  
Wind Speed 6 mph (ENE)    
Max Wind Speed 16 mph    
Max Gust Speed 20 mph    
Visibility 10 miles    
Events      
T = Trace of Precipitation, MM = Missing Value Source: NWS Daily Summary

Daily Weather History Graph

Daily Weather History Graph

Search for Another Location

Airport or City:

Astronomy

Aug. 21, 2019 Rise Set
Actual Time 7:11 AM EDT 8:14 PM EDT
Civil Twilight 6:46 AM EDT 8:39 PM EDT
Nautical Twilight 6:17 AM EDT 9:08 PM EDT
Astronomical Twilight 5:46 AM EDT 9:39 PM EDT
Moon 11:58 PM EDT (8/21) 12:22 PM EDT (8/21)
Length of Visible Light 13h 53m
Length of Day
13h 03m
Waning Gibbous, 69% of the Moon is Illuminated
Aug 21
Waning Gibbous
Aug 23
Last Quarter
Aug 30
New
Sep 5
First Quarter
Sep 14
Full

Hourly Weather History & Observations

Time (EDT) Temp. Heat Index Dew Point Humidity Pressure Visibility Wind Dir Wind Speed Gust Speed Precip Events Conditions
12:53 AM 78.1 °F - 75.9 °F 93% 30.09 in 10.0 mi ENE 4.6 mph - N/A   Partly Cloudy
1:53 AM 78.1 °F - 75.0 °F 90% 30.10 in 10.0 mi NE 3.5 mph - N/A   Clear
2:53 AM 78.1 °F - 75.0 °F 90% 30.08 in 10.0 mi North 3.5 mph - N/A   Clear
3:53 AM 78.1 °F - 75.0 °F 90% 30.05 in 10.0 mi Calm Calm - N/A   Clear
4:53 AM 77.0 °F - 75.0 °F 94% 30.04 in 10.0 mi NE 4.6 mph - N/A   Clear
5:53 AM 77.0 °F - 73.9 °F 90% 30.06 in 10.0 mi NE 4.6 mph - N/A   Clear
6:53 AM 77.0 °F - 73.9 °F 90% 30.04 in 10.0 mi East 4.6 mph - N/A   Clear
7:53 AM 77.0 °F - 73.9 °F 90% 30.06 in 9.0 mi NE 5.8 mph - N/A   Clear
8:53 AM 79.0 °F - 75.9 °F 90% 30.08 in 10.0 mi NE 5.8 mph - N/A   Clear
9:53 AM 82.9 °F 91.8 °F 77.0 °F 82% 30.07 in 10.0 mi East 3.5 mph - N/A   Partly Cloudy
10:53 AM 86.0 °F 96.0 °F 75.9 °F 72% 30.10 in 10.0 mi SE 8.1 mph - N/A   Clear
11:53 AM 87.1 °F 97.3 °F 75.9 °F 69% 30.11 in 10.0 mi SE 10.4 mph - N/A   Partly Cloudy
12:53 PM 87.1 °F 97.3 °F 75.9 °F 69% 30.10 in 10.0 mi SE 9.2 mph - N/A   Mostly Cloudy
1:53 PM 88.0 °F 97.5 °F 75.0 °F 65% 30.09 in 10.0 mi SE 10.4 mph - N/A   Scattered Clouds
2:53 PM 88.0 °F 98.5 °F 75.9 °F 67% 30.07 in 10.0 mi SSE 11.5 mph - N/A   Partly Cloudy
4:53 PM 84.9 °F 92.1 °F 73.9 °F 69% 30.06 in 10.0 mi SE 6.9 mph - N/A   Overcast
5:53 PM 84.9 °F 92.1 °F 73.9 °F 69% 30.05 in 10.0 mi ESE 5.8 mph - N/A   Partly Cloudy
6:53 PM 84.0 °F 91.9 °F 75.0 °F 74% 30.06 in 10.0 mi North 6.9 mph - N/A   Scattered Clouds
7:49 PM 82.4 °F 89.5 °F 75.2 °F 79% 30.04 in 10.0 mi NNE 3.5 mph - N/A   Mostly Cloudy
7:53 PM 82.9 °F 90.2 °F 75.0 °F 77% 30.04 in 10.0 mi ENE 4.6 mph - N/A   Mostly Cloudy
8:13 PM 82.0 °F 88.6 °F 75.0 °F 79% 30.03 in 10.0 mi East 4.6 mph - N/A   Mostly Cloudy
8:53 PM 81.0 °F 86.7 °F 75.0 °F 82% 30.05 in 10.0 mi NNE 3.5 mph - N/A   Clear
9:53 PM 79.0 °F - 75.0 °F 88% 30.05 in 10.0 mi Calm Calm - N/A   Clear
10:53 PM 78.1 °F - 75.0 °F 90% 30.06 in 10.0 mi NNE 3.5 mph - N/A   Clear
11:53 PM 77.0 °F - 75.0 °F 94% 30.07 in 10.0 mi NE 4.6 mph - N/A   Clear